Regional Weather Roundup
Issued by NWS Northern Indiana

Home | Current Version | Previous Version | Text Only | Print | Product List | Glossary Off
Versions: 1 2 3 4 5 6 7 8 9 10 11 12 13 14 15 16 17 18 19 20 21 22 23 24 25 26 27 28 29 30 31 32 33 34 35 36 37 38 39 40 41 42 43 44 45 46 47 48 49 50

000
ASUS43 KIWX 131600
RWRIWX

KIWX WEATHER ROUNDUP
NATIONAL WEATHER SERVICE NORTHERN INDIANA
1100 AM EST SAT FEB 13 2016

NOTE: "FAIR" INDICATES FEW OR NO CLOUDS BELOW 12,000 FEET WITH NO
SIGNIFICANT WEATHER AND/OR OBSTRUCTIONS TO VISIBILITY.

* THESE STATIONS ARE NOT UNDER NWS QUALITY CONTROL. THEY ALSO MAY NOT
  REPORT WEATHER SUCH AS PRECIPITATION OR FOG.

INZ001>027-131700-
NORTHERN INDIANA

CITY           SKY/WX    TMP DP  RH WIND       PRES   REMARKS
GARY*          MOSUNNY   12 -11  34 W12       30.60S WCI  -2
SOUTH BEND     SNOW      12   7  80 W12       30.52R VSB 1/2 WCI  -2
ELKHART*       LGT SNOW N/A N/A N/A MISG      30.50S
GOSHEN         LGT SNOW  10   5  80 SW14      30.49S WCI  -6
MONTICELLO*    SUNNY     11  -8  41 NW12      30.58S WCI  -3
ANGOLA*        PTSUNNY   10   3  72 W6        30.45S WCI   1
FORT WAYNE     MOSUNNY   11   4  73 W14       30.51S WCI  -5
PERU/GRISSOM   SUNNY     12   0  60 NW12      30.52S WCI  -2

$$
INZ028>050-131700-
CENTRAL INDIANA

CITY           SKY/WX    TMP DP  RH WIND       PRES   REMARKS
LAFAYETTE      SUNNY     11  -7  44 NW8       30.60S WCI  -1
KOKOMO*        SUNNY     12   0  57 NW13      30.54S WCI  -3
MUNCIE*        SUNNY     11   1  64 NW9       30.53S WCI  -2
INDIANAPOLIS   MOSUNNY   14  -3  47 NW9       30.56S WCI   2

$$
MIZ043>046-050>051-056>058-064>065-071>073-077>080-131700-
SOUTHWEST LOWER MICHIGAN

CITY           SKY/WX    TMP DP  RH WIND       PRES   REMARKS
BATTLE CREEK   PTSUNNY   11   1  64 NW13      30.44S WCI  -4
BENTON HARBOR  CLOUDY    15   1  53 NW12G22   30.51R WCI   2
COLDWATER*     PTSUNNY   13   4  67 W5        30.45S WCI   5
HILLSDALE*     MOSUNNY   11   1  65 NW15      30.41S WCI  -6
HOLLAND        LGT SNOW  15   5  64 N9        30.48R WCI   3
GRAND RAPIDS   PTSUNNY   13   1  59 NW17G25   30.45R WCI  -4
KALAMAZOO      LGT SNOW  12   5  73 NW6       30.45F WCI   3
STURGIS*       MOSUNNY   12   4  71 W9        30.45S WCI   0
THREE RIVERS*  FAIR      14   8  75 W9        30.47S WCI   2

$$
OHZ001>008-015>018-024>025-131700-
NORTHWEST OHIO

CITY           SKY/WX    TMP DP  RH WIND       PRES   REMARKS
DEFIANCE       CLOUDY    12   3  67 W8        30.50R WCI   0
FINDLAY        CLOUDY    14   0  53 W17       30.47R WCI  -3
TOLEDO EXPRESS CLOUDY    11  -1  58 W14       30.47R WCI  -5
TOLEDO METCALF CLOUDY    12  -1  56 W14G20    30.48S WCI  -3
LIMA           PTSUNNY   11  -1  58 NW12      30.47S WCI  -3

$$
AND FOR LAKE MICHIGAN COASTAL AND OPEN LAKE BUOY OBSERVATIONS

STATION/POSITION TEMP    WIND        PRES    VSBY  WAVE
                 AIR SEA DIR/SP/G                  HT/PER
                 (F)     (DEG/KT/KT) (MB)    (MI)  (FT/S)
CALUMET HARBOR     7     290/  8/ 12 1034.7R
MICHIGAN CITY     11     270/ 18/ 23   N/A
BURNS HARBOR      10     320/ 13/ 22 1035.2R
SAINT JOSEPH      15     310/ 13/ 21 1033.5R

$$
&&



USA.gov is the U.S. government's official web portal to all federal, state and local government web resources and services.